View from above orbital plane
|
View from above satellite
|
Ground track
|
The orbit data is extracted from the following two-line orbital elements,
1 27601U 02056E 21058.51690587 -.00000052 00000-0 -39770-5 0 9996
2 27601 98.2017 86.7945 0071202 237.1412 291.1636 14.31991102951190
Epoch (UTC): | 27 February 2021 12:24:20 |
Eccentricity: | 0.0071202 |
inclination: | 98.2017° |
perigee height: | 734 km |
apogee height: | 836 km |
right ascension of ascending node: | 86.7945° |
argument of perigee: | 237.1412° |
revolutions per day: | 14.31991102 |
mean anomaly at epoch: | 291.1636° |
orbit number at epoch: | 95119 |
The dashed part of the orbit path shows where the satellite is in the earth's shadow,
|
|